Location: Huntsville
(41.2590°N, 111.7678°W)
Time: 20:12:18
(UTC+00:00)

Explorer 7 - Pass Details

Date: 14 June 2021
Orbit: 484 x 676 km, 50.3° (Epoch: 30 July)

Event Time Altitude Azimuth Distance (km) Brightness Sun altitude
Rises 10:52:08 0° 302° (WNW) 2,914 10.4 -9.9°
Reaches altitude 10° 10:54:41 10° 311° (NW) 1,972 9.6 -9.6°
Maximum altitude 10:58:49 35° 17° (NNE) 966 8.7 -9.0°
Drops below altitude 10° 11:02:43 10° 84° (E) 1,854 10.4 -8.4°
Sets 11:05:03 0° 94° (E) 2,712 11.1 -8.1°
